Regional Weather Roundup
Issued by NWS Charleston, SC

Current Version | Previous Version | Graphics & Text | Print | Product List | Glossary On
Versions: 1 2 3 4 5 6 7 8 9 10 11 12 13 14 15 16 17 18 19 20 21 22 23 24 25 26 27 28 29 30 31 32 33 34 35 36 37 38 39 40 41 42 43 44 45 46 47 48 49 50
000
ASUS42 KCHS 230425
RWRCHS

REGIONAL WEATHER ROUNDUP
NATIONAL WEATHER SERVICE CHARLESTON SC
1200 AM EDT WED JUL 23 2014

NOTE: "FAIR" INDICATES FEW OR NO CLOUDS BELOW 12,000 FEET WITH NO
SIGNIFICANT WEATHER AND/OR OBSTRUCTIONS TO VISIBILITY.

NOT ALL STATIONS ARE QUALITY CONTROLLED BY THE NATIONAL
WEATHER SERVICE. USE DATA WITH CAUTION...ESPECIALLY
DEWPOINT OBSERVATIONS.

SCZ027-030-031-034>040-042>050-230500-
...SOUTH CAROLINA...

CITY           SKY/WX    TMP DP  RH WIND       PRES   REMARKS
N CHARLESTON   PTCLDY    79  74  84 CALM      30.09F
WATERFRONT PRK   N/A     82 N/A N/A S6          N/A
FORT JOHNSON   NOT AVBL
MOUNT PLEASANT FAIR      75  75 100 CALM      30.09F
JOHNS ISLAND   CLEAR     75  68  78 CALM      30.09F
PINOPOLIS        N/A     79  73  83 CALM      30.01F
MONCKS CORNER    N/A     75  75 100 CALM      30.09F
SUMMERVILLE    FAIR      73  73 100 CALM      30.10F
BEAUFORT MCAS  PTCLDY    79  76  90 CALM      30.09F
BEAUFORT ARPT  FAIR      77  77 100 CALM      30.08F
HILTON HEAD IS PTCLDY    77  75  94 CALM      30.10S
GEORGETOWN     NOT AVBL
WALTERBORO     PTCLDY    77 N/A N/A CALM      30.10S
ORANGEBURG     MOCLDY    77  74  90 CALM      30.10F
BARNWELL       FAIR      77  73  88 SE3       30.11S
AIKEN          CLOUDY    75  75 100 CALM      30.15S
MANNING        FAIR      77 N/A N/A MISG      30.10S
KINGSTREE      NOT AVBL
COLUMBIA       MOCLDY    80  74  81 CALM      30.10F
SUMTER         PTCLDY    77  76  98 E1        30.09F
FLORENCE       CLEAR     77  75  93 S6        30.10S
MYRTLE BEACH   PTCLDY    81  72  74 S10       30.09S
N MYRTLE BEACH MOCLDY    80  73  79 S9        30.09F

$$

GAZ063-065-086>088-099>101-113>116-118-119-134-136>141-150-230500-
...GEORGIA...

CITY           SKY/WX    TMP DP  RH WIND       PRES   REMARKS
SAVANNAH ARPT  PTCLDY    77  73  87 CALM      30.09F
HUNTER AAF     PTCLDY    77  76  96 CALM      30.07F
FORT STEWART   PTCLDY    75  73  94 CALM      30.08F
STATESBORO     NOT AVBL
SYLVANIA       CLOUDY    75  75 100 CALM      30.10F
CLAXTON        FAIR     N/A N/A N/A CALM      30.09F HAZE
THOMSON        MOCLDY    75  75 100 CALM      30.14F
AUGUSTA-BUSH   PTCLDY    75  73  93 E5        30.08F
AUGUSTA-DANIEL PTCLDY    78  73  84 E3        30.10F
SWAINSBORO     FAIR      77  77 100 E3        30.10F
VIDALIA          N/A     73  73 100 CALM      30.09F
ALMA           MOCLDY    75  72  90 CALM      30.08S
WAYCROSS       CLOUDY    78  77  98 CALM      30.08S
JESUP          NOT AVBL
BRUNSWICK      PTCLDY    77  73  88 CALM      30.09S
SAINT SIMONS   PTCLDY    80  74  81 S5        30.08R

$$

SCZ027-028-034-036>038-045-046-048>050-GAZ119-141-230500-
...LAKE AND SUPPLEMENTAL COASTAL OBSERVATIONS...

STATION/POSITION TIME  TEMP    WIND        PRES    WAVE   SWELL
                       AIR SEA DIR/SP/G            HT/PER HT/PER/DIR
                 (UTC) (F)     (DEG/KT/KT) (MB)    (FT/S) (FT/S/D)
UPR LAKE MARION  NOT AVBL
WINYAH BAY       0400   78     180/  4     1019.0S
LAKE MURRAY      0400   79     120/  2/  4 1019.0S
ACE BASIN NERRS  0400   76        CALM     1019.0S
FORT PULASKI     0400   79     150/  1/  2 1019.0F
SAPELO ISLAND    0400   77     130/  1     1019.0S

$$

ANZ835-935-AMZ111-154-330-350-352-354-374-450-454-472-230500-
...C-MAN AND BUOY OBSERVATIONS...

STATION/POSITION TIME  TEMP    WIND        PRES    WAVE   SWELL
                       AIR SEA DIR/SP/G            HT/PER HT/PER/DIR
                 (UTC) (F)     (DEG/KT/KT) (MB)    (FT/S) (FT/S/D)
FOLLY BEACH CMAN 0400   81     170/  6/  7 1019.3F
BUOY 41004       0400   81 82  160/ 10/ 12 1018.6F   3/ 7   2/ 7
BUOY 41008       0400   81 84  140/  6/  6 1018.5F   3/ 8   2/100/ 8
5E ST. MARYS GA  0400      84                N/A     2/ 7
FRYING PAN BUOY  NOT AVBL
BUOY 41025       0400          VRB 16/ 17  1019.1F   4/ 7   3/130/ 7
CAPE LOOKOUT NC  0400   78     220/  8/ 11 1018.8F
BUOY 41002       0322   82 82  190/ 14/ 16 1021.2F   3/ 9   2/120/ 9
BUOY 41010       0400   83 83  140/ 14/ 16 1019.5F   4/ 8   2/110/ 8
BUOY 41012       NOT AVBL
ST AUGUSTINE FL  0400   82     180/  5/  6 1019.0R
CAPERS NEARSHORE 0300   80     180/  8/ 10   N/A
FRIPP NEARSHORE  NOT AVBL


$$



USA.gov is the U.S. government's official web portal to all federal, state and local government web resources and services.